Regional Weather Roundup
Issued by NWS

Home | Current Version | Previous Version | Text Only | Print | Product List | Glossary Off
Versions: 1 2 3 4 5 6 7 8 9 10 11 12 13 14 15 16 17 18 19 20 21 22 23 24 25 26 27 28 29 30 31 32 33 34 35 36 37 38 39 40 41 42 43 44 45 46 47 48 49 50

000
ASUS45 KTFX 291304
RWRMT
MONTANA HOURLY WEATHER ROUNDUP
NATIONAL WEATHER SERVICE GREAT FALLS MT
604 AM MST THU JAN 29 2015

NOTE: "FAIR" INDICATES FEW OR NO CLOUDS BELOW 12000 FEET WITH NO
SIGNIFICANT WEATHER AND/OR OBSTRUCTIONS TO VISIBILITY.

* THESE STATIONS ARE NOT UNDER NWS QUALITY CONTROL. THEY DO NOT
   REPORT WEATHER SUCH AS PRECIPITATION OR FOG.

MTZ001>007-043-291400-
WEST OF THE DIVIDE
CITY           SKY/WX    TMP DP  RH WIND       PRES   REMARKS
KALISPELL      FAIR      12   9  88 CALM      30.43S
MISSOULA       FOG       19  18  96 CALM      30.47S VSB 3/4
BUTTE          CLEAR     18  12  77 SE3       30.40S
MULLAN PASS    MOCLDY    27  21  78 S6        30.34S WCI  20
* ANACONDA     PTCLDY    23  16  74 S6         N/A   WCI  16
* ESSEX        N/A       16  14  92 N/A        N/A
* LINCOLN      N/A       13  10  88 N/A        N/A
* LOOKOUT PASS N/A       23  22  96 S2         N/A
* POLSON       N/A       26  25  96 N/A        N/A
* RONAN APT    CLEAR     19  18  96 N/A        N/A
* SEELEY LAKE  N/A       10   7  88 NE1        N/A
* THOMP F APT  PTCLDY    25  22  88 N5         N/A   WCI  19
$$

MTZ008-052>055-291400-
SOUTHWEST MONTANA
CITY           SKY/WX    TMP DP  RH WIND       PRES   REMARKS
BOZEMAN        CLEAR     23  18  81 CALM      30.42R
DILLON         PTCLDY    25  19  78 SW13      30.40S WCI  13
* W YELLOWSTON PTCLDY    26  25  96 N/A        N/A
* THREE FORKS  CLEAR     19  19 100 N/A        N/A
* BOULDER HILL N/A       24  16  71 SW7        N/A   WCI  16
* MONIDA PASS  N/A       20  20 100 NE3        N/A
* RAYNOLDS PAS N/A       22   4  46 SE4        N/A
* WHITEHALL    N/A       24  19  81 S1G14      N/A
* WISE RIVER   N/A       15  12  88 W3         N/A
$$

MTZ009>010-012-014-046-048-049-054-291400-
EAST SLOPES AND CENTRAL MONTANA
CITY           SKY/WX    TMP DP  RH WIND       PRES   REMARKS
CUT BANK       FOG       21  19  92 CALM      30.31S
GREAT FALLS    CLEAR     27  21  78 S9        30.33F WCI  18
HELENA         CLEAR     25  21  85 CALM      30.41S
MALMSTROM AFB  CLEAR     25  23  92 SW10      30.34F WCI  15
* DEARBORN     N/A       35  23  62 SW3G10     N/A
* EAST GLACIER N/A       32  22  67 W17G29     N/A   WCI  21
* MONARCH      N/A       23  18  81 N/A        N/A
* PENDROY      N/A       26  18  72 W2         N/A
* ROGERS PASS  N/A       27  20  75 SE7G14     N/A   WCI  19
* SWEET GRASS  N/A       25  25 100 S12        N/A   WCI  14
$$

MTZ011-013-016-021-035-040-045-047-050-051-291400-
NORTH CENTRAL MONTANA
CITY           SKY/WX    TMP DP  RH WIND       PRES   REMARKS
HAVRE          CLEAR     23  21  92 SE5       30.37F WCI  16
LEWISTOWN      CLEAR     25  19  78 SE6       30.35F WCI  18
* N BAR RANCH  CLEAR     25  18  75 NW5       30.37F WCI  19
* CHESTER      N/A       22  20  92 N/A        N/A
* DENTON       N/A       21  19  92 SW4        N/A
* GEYSER       N/A       23  19  85 SW6        N/A   WCI  16
* JUDITH GAP   N/A       24  24 100 SE9        N/A   WCI  14
* LOMA         N/A       21  20  96 SW2        N/A
$$

MTZ017>020-022>027-061-062-291400-
NORTHEAST MONTANA
CITY           SKY/WX    TMP DP  RH WIND       PRES   REMARKS
GLASGOW        FOG       21  18  88 CALM      30.43S VSB 1/2
GLENDIVE       CLOUDY    27  25  92 W10       30.46R WCI  18
JORDAN         CLEAR     19  18  96 W3        30.43F
SIDNEY         CLOUDY    28  21  75 W7        30.48R WCI  21
WOLF POINT     CLEAR     21  18  88 CALM      30.46S
* BEAVER HILL  N/A       26  22  85 W9G14      N/A   WCI  17
* CIRCLE       N/A       22  20  92 N/A        N/A
* LINDSAY DVD  N/A       25  23  92 W8         N/A   WCI  16
* NAVAJO       N/A       19  17  92 NW9        N/A   WCI   8
* SACO         N/A       18  16  92 SE2        N/A
$$

MTZ028>042-056>058-291400-
SOUTHCENTRAL AND SOUTHEAST MONTANA
CITY           SKY/WX    TMP DP  RH WIND       PRES   REMARKS
BAKER          CLOUDY    27  25  92 W12       30.42S WCI  16
BILLINGS       CLEAR     28  25  89 SW13      30.41S WCI  17
LIVINGSTON     CLEAR     27  21  78 NW18G24   30.37F WCI  14
MILES CITY     CLEAR     21  19  92 W3        30.45S
* LAUREL APT   CLEAR     25  14  63 N/A        N/A
* ROUNDUP APT  CLEAR     23  18  81 N/A        N/A
* HYSHAM       N/A       29  26  89 N/A        N/A
* LAME DEER    N/A       28  24  85 N/A        N/A
* REED POINT   N/A       22  22 100 N/A        N/A
* ROSCOE HILL  N/A       31  17  56 S6         N/A   WCI  25
$$

REGIONAL REPORTS...DAKOTAS
CITY           SKY/WX    TMP DP  RH WIND       PRES   REMARKS
WILLISTON      CLOUDY    25  18  75 NW8       30.45R WCI  16
DICKINSON      CLOUDY    27  21  78 NW16G23   30.38R WCI  15
CROSBY         CLOUDY    23  19  85 NW14      30.44R WCI  10
WATFORD CITY   CLOUDY    25  21  85 NW13      30.42R WCI  13
BISMARCK       CLOUDY    27  19  72 NW15G26   30.41R WCI  15
GRAND FORKS    CLOUDY    18  10  71 N23G31    30.35R WCI   1
FARGO          CLOUDY    21  12  68 N25G33    30.32R WCI   4
BUFFALO SD     CLEAR     25  21  85 NW15      30.34R WCI  13
RAPID CITY     CLEAR     25  21  85 W6        30.43R WCI  18
$$

REGIONAL REPORTS...WYOMING/IDAHO/WASHINGTON
CITY           SKY/WX    TMP DP  RH WIND       PRES   REMARKS
GILLETTE       CLEAR     23  18  81 SW3       30.43R
SHERIDAN       CLEAR     25  19  78 CALM      30.43R
CODY           PTCLDY    30  27  89 S7        30.40S WCI  23
YELLOWSTONE LA PTCLDY    16  12  84 CALM      30.43F
SALMON         CLOUDY    21  19  92 CALM      30.48S VSB M1/4
MULLAN PASS    MOCLDY    27  21  78 S6        30.34S WCI  20
SAND POINT     FOG       32  32 100 NE6       30.47S VSB 1 3/4 WCI  26
SPOKANE        FOG       32  30  92 NE8       30.42F VSB M1/4 WCI  25
$$

REGIONAL REPORTS...ALBERTA
CITY           SKY/WX    TMP DP  RH WIND       PRES   REMARKS
EDMONTON       FOG       21  19  92 S9        30.31F VSB 1    WCI  11

$$




USA.gov is the U.S. government's official web portal to all federal, state and local government web resources and services.